User: anonymous   Login
Location: Clanezzo
(45.7500°N, 9.6000°E)
Time: 19:07:28
(UTC+00:00)
Language:

BEESAT 3 - Orbit

View from above orbital plane
View from above orbital plane
View from above satellite
View from above satellite

Ground track
Ground track

The orbit data is extracted from the following two-line orbital elements,

1 39134U 13015E   22225.46119651  .00011614  00000-0  39994-3 0  9996
2 39134  64.8591 234.6074 0035771 271.8750  87.8285 15.29789736515572
Epoch (UTC): 13 August 2022 11:04:07
Eccentricity: 0.0035771
inclination: 64.8591°
perigee height: 452 km
apogee height: 501 km
right ascension of ascending node: 234.6074°
argument of perigee: 271.8750°
revolutions per day: 15.29789736
mean anomaly at epoch: 87.8285°
orbit number at epoch: 51557

The dashed part of the orbit path shows where the satellite is in the earth's shadow,  

DLR